Tacoma, WA
on Friday, February 1, 2013

Friday
Previous Day Next Day
Daily Summary
 ActualAverage (KSEA)Record (KSEA)
Temperature
Mean Temperature °F 43°F  
Max Temperature 51°F 49°F 63°F (1962)
Min Temperature 38°F 37°F 1°F (1950)
Degree Days
Heating Degree Days 20 22  
Month to date heating degree days 22  
Since 1 July heating degree days 2671  
Cooling Degree Days 0 0  
Month to date cooling degree days 0  
Year to date cooling degree days 0  
Moisture
Dew Point 42°F   
Average Humidity 98    
Maximum Humidity 100    
Minimum Humidity 76    
Precipitation
Precipitation 0.00 in 0.13 in 1.34 in (2000)
Month to date precipitation 0.13  
Year to date precipitation 5.70  
Snow
Snow 0.00 in in 5.80 in (1989)
Month to date snowfall  
Since 1 July snowfall  
Snow Depth in   
Wind
Wind Speed 3 mph   
Max Wind Speed 8 mph   
Max Gust Speed mph   
Visibility 5 miles   
Events Fog   

Key: T is trace of precipitation, MM is missing value
Source: NWS Daily Summary
Time(PST)TemperatureDew PointHumidity Pressure Visibility Wind DirectionWind SpeedGust SpeedPrecipitationEvents Conditions
12:03 AM 46.4°F 46.4°F 100% 30.34 in 9.0 miles SSW 5.8 mph - N/A   Overcast
12:15 AM 46.4°F 46.4°F 100% 30.34 in 10.0 miles SSW 4.6 mph - N/A   Overcast
12:20 AM 46.4°F 46.4°F 100% 30.34 in 10.0 miles SSW 4.6 mph - N/A   Overcast
12:45 AM 46.4°F 44.6°F 93% 30.34 in 10.0 miles SSW 3.5 mph - N/A   Overcast
12:58 AM 45.3°F 45.1°F 99% 30.36 in 10.0 miles SSW 2.3 mph - 0.00 in   Overcast
1:28 AM 44.6°F 44.6°F 100% 30.35 in 10.0 miles South 4.6 mph - N/A   Overcast
1:48 AM 42.8°F 42.8°F 100% 30.35 in 2.0 miles South 4.6 mph - N/A   Mostly Cloudy
1:53 AM 42.8°F 42.8°F 100% 30.36 in 1.0 miles South 3.5 mph - N/A   Mostly Cloudy
1:58 AM 42.8°F 42.8°F 100% 30.38 in 1.2 miles SSW 2.3 mph - N/A   Mostly Cloudy
2:03 AM 42.8°F 42.8°F 100% 30.36 in 2.0 miles SSW 1.2 mph - N/A   Mostly Cloudy
2:08 AM 42.8°F 42.8°F 100% 30.36 in 2.5 miles SSW 1.2 mph - N/A   Overcast
2:18 AM 42.8°F 42.8°F 100% 30.37 in 2.0 miles South 2.3 mph - N/A   Overcast
2:23 AM 42.8°F 42.8°F 100% 30.37 in 1.5 miles South 3.5 mph - N/A   Overcast
2:28 AM 42.8°F 42.8°F 100% 30.37 in 1.5 miles SSW 3.5 mph - N/A   Overcast
2:33 AM 41.0°F 41.0°F 100% 30.37 in 3.0 miles SSW 4.6 mph - N/A   Overcast
2:48 AM 41.0°F 41.0°F 100% 30.37 in 10.0 miles Calm Calm - N/A   Overcast
2:58 AM 42.4°F 42.3°F 99% 30.39 in 10.0 miles Calm Calm - N/A   Overcast
3:13 AM 42.8°F 42.8°F 100% 30.37 in 10.0 miles Calm Calm - N/A   Overcast
3:28 AM 42.8°F 42.8°F 100% 30.37 in 1.8 miles South 2.3 mph - N/A   Overcast
3:33 AM 42.8°F 41.0°F 93% 30.37 in 1.2 miles South 1.2 mph - N/A   Overcast
3:38 AM 41.0°F 41.0°F 100% 30.37 in 1.0 miles Calm Calm - N/A   Overcast
3:48 AM 42.8°F 41.0°F 93% 30.37 in 0.8 miles Calm Calm - N/A   Overcast
3:58 AM 41.9°F 41.7°F 99% 30.39 in 0.8 miles Calm Calm - N/A   Overcast
4:03 AM 42.8°F 41.0°F 93% 30.37 in 0.5 miles South 1.2 mph - N/A Fog Fog
4:08 AM 41.0°F 41.0°F 100% 30.37 in 0.5 miles SSE 2.3 mph - N/A Fog Fog
4:13 AM 41.0°F 41.0°F 100% 30.37 in 0.5 miles SE 1.2 mph - N/A Fog Fog
4:16 AM 41.0°F 41.0°F 100% 30.37 in 0.5 miles Calm Calm - N/A Fog Fog
4:21 AM 41.0°F 41.0°F 100% 30.37 in 0.5 miles Calm Calm - N/A Fog Fog
4:26 AM 41.0°F 41.0°F 100% 30.37 in 0.8 miles Calm Calm - N/A   Overcast
4:36 AM 41.0°F 41.0°F 100% 30.37 in 0.5 miles Calm Calm - N/A Fog Fog
4:46 AM 39.2°F 39.2°F 100% 30.37 in 0.5 miles SSE 4.6 mph - N/A Fog Fog
4:56 AM 39.2°F 39.2°F 100% 30.38 in 0.8 miles ESE 3.5 mph - N/A   Mist
4:58 AM 38.8°F 38.7°F 99% 30.40 in 0.8 miles ESE 3.5 mph - N/A   Mist
5:08 AM 41.0°F 41.0°F 100% 30.38 in 0.8 miles SSE 2.3 mph - N/A   Overcast
5:13 AM 41.0°F 41.0°F 100% 30.38 in 1.5 miles South 2.3 mph - N/A   Overcast
5:18 AM 41.0°F 41.0°F 100% 30.37 in 3.0 miles South 2.3 mph - N/A   Overcast
5:23 AM 41.0°F 41.0°F 100% 30.37 in 2.5 miles Calm Calm - N/A   Overcast
5:28 AM 41.0°F 41.0°F 100% 30.37 in 1.5 miles East 1.2 mph - N/A   Overcast
5:33 AM 41.0°F 41.0°F 100% 30.37 in 1.5 miles ENE 1.2 mph - N/A   Overcast
5:38 AM 41.0°F 41.0°F 100% 30.37 in 1.5 miles NE 1.2 mph - N/A   Overcast
5:43 AM 41.0°F 41.0°F 100% 30.37 in 1.8 miles Calm Calm - N/A   Overcast
5:48 AM 41.0°F 41.0°F 100% 30.37 in 2.5 miles East 1.2 mph - N/A   Overcast
5:53 AM 39.2°F 39.2°F 100% 30.37 in 1.8 miles East 1.2 mph - N/A   Overcast
5:58 AM 39.7°F 39.7°F 100% 30.39 in 1.2 miles Calm Calm - N/A   Overcast
6:03 AM 39.2°F 39.2°F 100% 30.37 in 1.0 miles Calm Calm - N/A   Overcast
6:13 AM 41.0°F 41.0°F 100% 30.38 in 1.0 miles Calm Calm - N/A   Overcast
6:23 AM 41.0°F 41.0°F 100% 30.38 in 2.0 miles Calm Calm - N/A   Overcast
6:28 AM 41.0°F 41.0°F 100% 30.38 in 5.0 miles Calm Calm - N/A   Overcast
6:33 AM 41.0°F 41.0°F 100% 30.38 in 7.0 miles East 1.2 mph - N/A   Overcast
6:58 AM 41.5°F 41.5°F 100% 30.39 in 9.0 miles Calm Calm - N/A   Overcast
7:18 AM 41.0°F 41.0°F 100% 30.37 in 10.0 miles Calm Calm - N/A   Overcast
7:28 AM 42.8°F 42.8°F 100% 30.37 in 10.0 miles Calm Calm - N/A   Overcast
7:58 AM 41.0°F 41.0°F 100% 30.39 in 1.5 miles SE 2.3 mph - N/A   Mostly Cloudy
8:03 AM 41.0°F 41.0°F 100% 30.37 in 0.8 miles Calm Calm - N/A   Scattered Clouds
8:08 AM 41.0°F 41.0°F 100% 30.36 in 1.2 miles Calm Calm - N/A   Partly Cloudy
8:13 AM 42.8°F 42.8°F 100% 30.37 in 2.5 miles WNW 2.3 mph - N/A   Partly Cloudy
8:18 AM 42.8°F 42.8°F 100% 30.37 in 2.0 miles NW 1.2 mph - N/A   Clear
8:23 AM 41.0°F 41.0°F 100% 30.36 in 0.5 miles Calm Calm - N/A Fog Fog
8:28 AM 41.0°F 41.0°F 100% 30.37 in 0.2 miles Calm Calm - N/A Fog Fog
8:33 AM 41.0°F 41.0°F 100% 30.37 in 0.2 miles Calm Calm - N/A Fog Fog
8:38 AM 41.0°F 41.0°F 100% 30.37 in 0.2 miles Calm Calm - N/A Fog Fog
8:43 AM 39.2°F 39.2°F 100% 30.37 in 0.2 miles Variable 1.2 mph - N/A Fog Fog
8:47 AM 39.2°F 39.2°F 100% 30.37 in 0.2 miles ESE 3.5 mph - N/A Fog Fog
8:52 AM 39.2°F 39.2°F 100% 30.37 in 0.2 miles East 4.6 mph - N/A Fog Fog
8:57 AM 41.0°F 41.0°F 100% 30.38 in 0.5 miles ESE 4.6 mph - N/A Fog Fog
8:58 AM 40.3°F 40.3°F 100% 30.40 in 0.5 miles ESE 4.6 mph - N/A Fog Fog
9:03 AM 41.0°F 41.0°F 100% 30.37 in 1.8 miles ESE 4.6 mph - N/A   Overcast
9:08 AM 42.8°F 42.8°F 100% 30.38 in 4.0 miles East 3.5 mph - N/A   Overcast
9:48 AM 44.6°F 44.6°F 100% 30.38 in 6.0 miles North 1.2 mph - N/A   Overcast
9:58 AM 44.4°F 44.4°F 100% 30.41 in 8.0 miles Variable 2.3 mph - N/A   Overcast
10:18 AM 44.6°F 44.6°F 100% 30.39 in 10.0 miles Variable 4.6 mph - N/A   Mostly Cloudy
10:28 AM 46.4°F 46.4°F 100% 30.39 in 10.0 miles NW 4.6 mph - N/A   Mostly Cloudy
10:33 AM 46.4°F 46.4°F 100% 30.39 in 10.0 miles NW 4.6 mph - N/A   Mostly Cloudy
10:38 AM 46.4°F 46.4°F 100% 30.39 in 10.0 miles Variable 2.3 mph - N/A   Scattered Clouds
10:58 AM 47.1°F 47.1°F 100% 30.42 in 10.0 miles NW 3.5 mph - N/A   Mostly Cloudy
11:03 AM 46.4°F 46.4°F 100% 30.40 in 10.0 miles NW 3.5 mph - N/A   Mostly Cloudy
11:33 AM 46.4°F 46.4°F 100% 30.40 in 10.0 miles West 2.3 mph - N/A   Overcast
11:58 AM 47.5°F 46.9°F 98% 30.42 in 10.0 miles WNW 4.6 mph - N/A   Overcast
12:18 PM 48.2°F 44.6°F 87% 30.39 in 10.0 miles North 4.6 mph - N/A   Overcast
12:55 PM 49.3°F 45.3°F 86% 30.40 in 10.0 miles North 8.1 mph - N/A   Overcast
1:55 PM 51.1°F 43.9°F 76% 30.39 in 10.0 miles NE 5.8 mph - N/A   Mostly Cloudy
2:03 PM 50.0°F 44.6°F 82% 30.37 in 10.0 miles North 5.8 mph - N/A   Mostly Cloudy
2:14 PM 50.0°F 42.8°F 76% 30.37 in 10.0 miles NE 3.5 mph - N/A   Scattered Clouds
2:19 PM 50.0°F 42.8°F 76% 30.37 in 10.0 miles Variable 2.3 mph - N/A   Mostly Cloudy
2:58 PM 49.5°F 43.7°F 81% 30.39 in 10.0 miles NNE 5.8 mph - N/A   Mostly Cloudy
3:58 PM 48.2°F 43.7°F 84% 30.39 in 10.0 miles NNE 6.9 mph - N/A   Overcast
4:43 PM 48.2°F 42.8°F 82% 30.36 in 10.0 miles NE 3.5 mph - N/A   Scattered Clouds
4:58 PM 47.3°F 43.3°F 86% 30.38 in 10.0 miles NE 3.5 mph - N/A   Partly Cloudy
5:13 PM 48.2°F 42.8°F 82% 30.36 in 10.0 miles NNE 3.5 mph - N/A   Mostly Cloudy
5:58 PM 46.6°F 43.9°F 90% 30.38 in 10.0 miles NNE 8.1 mph - N/A   Overcast
6:58 PM 44.4°F 43.9°F 98% 30.39 in 10.0 miles NNE 5.8 mph - N/A   Overcast
7:58 PM 43.9°F 43.7°F 99% 30.39 in 10.0 miles NNE 4.6 mph - N/A   Overcast
8:18 PM 42.8°F 42.8°F 100% 30.37 in 10.0 miles NE 3.5 mph - N/A   Scattered Clouds
8:53 PM 42.8°F 42.8°F 100% 30.38 in 10.0 miles NNE 3.5 mph - N/A   Mostly Cloudy
8:58 PM 42.8°F 42.6°F 99% 30.40 in 10.0 miles NNE 3.5 mph - N/A   Mostly Cloudy
9:48 PM 42.8°F 42.8°F 100% 30.38 in 10.0 miles NE 3.5 mph - N/A   Scattered Clouds
9:58 PM 42.6°F 42.3°F 99% 30.40 in 10.0 miles NE 2.3 mph - N/A   Partly Cloudy
10:13 PM 41.0°F 41.0°F 100% 30.38 in 9.0 miles East 2.3 mph - N/A   Clear
10:23 PM 41.0°F 41.0°F 100% 30.38 in 6.0 miles Calm Calm - N/A   Clear
10:33 PM 41.0°F 41.0°F 100% 30.38 in 2.5 miles Calm Calm - N/A   Clear
10:38 PM 41.0°F 39.2°F 93% 30.38 in 1.0 miles SE 2.3 mph - N/A   Clear
10:43 PM 39.2°F 39.2°F 100% 30.37 in 0.8 miles Calm Calm - N/A   Mist
10:48 PM 41.0°F 41.0°F 100% 30.37 in 1.5 miles ESE 1.2 mph - N/A   Scattered Clouds
10:53 PM 41.0°F 39.2°F 93% 30.37 in 3.0 miles East 1.2 mph - N/A   Mostly Cloudy
10:58 PM 39.4°F 39.2°F 99% 30.39 in 4.0 miles East 2.3 mph - N/A   Mostly Cloudy
11:33 PM 39.2°F 39.2°F 100% 30.36 in 10.0 miles Variable 2.3 mph - N/A   Overcast
11:58 PM 41.5°F 41.4°F 99% 30.39 in 10.0 miles Variable 1.2 mph - N/A   Overcast
Moon Phase
Feb. 01 Feb. 03 Feb. 10 Feb. 17 Feb. 25
Sunrise:07:34 AM (PST) Moon Rise:11:55 PM (PST)2/1
Sunset:05:13 PM (PST) Moon Set:09:44 AM (PST)2/1

Copyright © 2014 The Weather Underground, Inc.